STARLINK-3209 (49752 NORAD) Tracking and Keplerian Element Data
This shows tracking and keplerian element data for the satellite.
Feedback or suggestion? Click here.
Element | Value |
Catalog | 49752 |
Name | STARLINK-3209 |
Epoch Orbit | 130 |
Epoch Day | 140.58334491 |
Epoch Year | 2022 |
RAAN | 255.074 |
Inclination | 53.2172 |
Eccentricity | 0.000192 |
Argument of Perigee | 50.0622 |
Mean Anonmoly | 101.4307 |
Mean Motion | 15.08851993 |
Decay Rate | -0.00028932 |
L1 | 1 49752U 21115AE 22140.58334491 -.00028932 00000+0 -18064-2 0 9999 |
L2 | 2 49752 53.2172 255.0740 0001920 50.0622 101.4307 15.08851993 1308 |
Live tracking and technical data element details for STARLINK-3209 (NORAD 49752). STARLINK-3209 can be tracked NOW for your location showing map with azimuth and elevation plus other details from your city location.
Track the satellite on the map from your city or location and see movement details for azimuth, elevation, latitude, longitude, range, height, and movement on the map or in text.
IsCatalogInMostPopularTable: catalog: 49752, numindb: 21
Update: records affected: 1
GetName: 49752 STARLINK-3209
Hit Count: updated at: Mon, 23 May 2022 21:04:22 GMT